Regional Weather Roundup
Issued by NWS

Home | Current Version | Previous Version | Graphics & Text | Print | Product List | Glossary On
Versions: 1 2 3 4 5 6 7 8 9 10 11 12 13 14 15 16 17 18 19 20 21 22 23 24 25 26 27
000
ASUS45 KTFX 200410
RWRMT
MONTANA REGIONAL WEATHER ROUNDUP
NATIONAL WEATHER SERVICE GREAT FALLS MT
1000 PM MDT SAT AUG 19 2017

NOTE: "FAIR" INDICATES FEW OR NO CLOUDS BELOW 12000 FEET WITH NO
SIGNIFICANT WEATHER AND/OR OBSTRUCTIONS TO VISIBILITY.

MTZ001>007-043-200500-
WEST OF THE DIVIDE

CITY           SKY/WX    TMP DP  RH WIND       PRES   REMARKS
KALISPELL      CLEAR     57  39  51 W3        30.01R
MISSOULA       CLEAR     66  38  35 NW6       30.05R
BUTTE          CLEAR     65  35  33 N13       30.11R
MULLAN PASS    CLEAR     52  34  50 NW3       30.19R
ANACONDA         N/A     63  36  36 NE6       30.10R
DEER LODGE       N/A     64  36  34 NW13      30.11R
EUREKA           N/A     64  32  29 MISG      29.99R
HAMILTON         N/A     64  37  36 E5        30.07R
LIBBY            N/A     64  36  34 S3        30.01R
RONAN            N/A     59  45  59 MISG      30.09R
$$

MTZ008-052>055-200500-
SOUTHWEST MONTANA

CITY           SKY/WX    TMP DP  RH WIND       PRES   REMARKS
BOZEMAN        PTCLDY    68  36  30 NW13      30.02R
DILLON         CLOUDY    64  32  30 NE12      30.04R
W YELLOWSTONE  CLOUDY    55  34  44 CALM      30.13S
THREE FORKS      N/A     70  34  26 MISG      30.03R
$$

MTZ009-010-012-014-046-048-049-054-200500-
EAST SLOPES AND CENTRAL MONTANA

CITY           SKY/WX    TMP DP  RH WIND       PRES   REMARKS
CUT BANK       CLEAR     58  35  42 E9        30.04R
GREAT FALLS    CLEAR     64  38  38 E10       30.02R
MALMSTROM AFB  CLEAR     59  38  46 E6        30.02R
HELENA         PTCLDY    68  34  28 NW7       30.03R
AUGUSTA          N/A     55  38  53 E7        30.06R
BOWMANS CRNR     N/A     60  36  40 NE10      30.03R
CHOTEAU          N/A     61  39  44 SE5       30.05S
FAIRFIELD        N/A     61  37  40 E8        30.03R
POWER            N/A     58  37  44 E9        30.03R
RAYNESFORD       N/A     61  38  42 E9        30.05R
ULM              N/A     62  38  40 E9        30.02R
$$

MTZ011-013-016-021-045-047-050-051-200500-
NORTH CENTRAL MONTANA

CITY           SKY/WX    TMP DP  RH WIND       PRES   REMARKS
HAVRE          CLEAR     63  32  31 E12       30.02R
LEWISTOWN      PTCLDY    64  38  38 SE9       30.06R
N BAR RANCH      N/A     63  36  36 NE9G20    30.10R
CHINOOK          N/A     63  30  29 E3        30.02R
DENTON           N/A     63  38  39 CALM      30.01R
GEYSER           N/A     58  37  46 SE5       30.06R
GRASS RANGE      N/A     62  37  38 CALM      30.03R
JUDITH GAP     MOCLDY    61  38  41 NW18G26   30.06R
WINIFRED       MOCLDY    62  37  39 E14       30.04R
$$

MTZ017>020-022>027-061-062-200500-
NORTHEAST MONTANA

CITY           SKY/WX    TMP DP  RH WIND       PRES   REMARKS
GLASGOW        PTCLDY    64  31  28 N14       29.99R
JORDAN           N/A     66  37  34 N8        29.99R
SIDNEY         PTCLDY    63  42  46 N8        29.96R
WOLF POINT     PTCLDY    66  34  30 N10       29.97R
MALTA          PTCLDY    63  32  31 N12       30.02R
PLENTYWOOD       N/A     63  37  39 NW8       29.96R
POPLAR           N/A     61  39  44 N5        29.98R
$$

MTZ028>42-056>058-200500-
SOUTHCENTRAL AND SOUTHEAST MONTANA

CITY           SKY/WX    TMP DP  RH WIND       PRES   REMARKS
BAKER          CLEAR     68  41  37 N13       29.98R
BILLINGS       CLOUDY    70  39  32 NE14      29.98R
LIVINGSTON     CLOUDY    71  38  29 E14       30.04R
MILES CITY     CLOUDY    71  37  28 NE10      29.96R
BIG TIMBER     PTCLDY    68  37  32 N10       30.08R
HARLOWTON      MOCLDY    66  37  34 MISG      30.05R
LAUREL           N/A     71  38  30 N9        29.98R
$$

REGIONAL REPORTS...DAKOTAS

CITY           SKY/WX    TMP DP  RH WIND       PRES   REMARKS
WILLISTON      PTCLDY    66  39  37 NW9       29.94R
MINOT          PTCLDY    67  45  45 W12       29.86R
DICKINSON      CLEAR     66  45  46 N12       29.93R
BEACH            N/A     57  43  58 CALM      30.00R
CROSBY           N/A     59  37  44 NW8       29.94R
TIOGA            N/A     61  43  51 NW9       29.95R
BISMARCK       PTCLDY    73  56  54 NW13      29.86R
GRAND FORKS    PTCLDY    72  64  76 S14       29.71S
FARGO          PTCLDY    71  64  78 S15G24    29.77S
BUFFALO SD       N/A     69  44  40 SW5       29.92R
RAPID CITY     CLOUDY    67  43  41 NW12      29.93R
$$

REGIONAL REPORTS...WYOMING/IDAHO/WASHINGTON

CITY           SKY/WX    TMP DP  RH WIND       PRES   REMARKS
GILLETTE       CLEAR     68  34  28 NE7       29.99R
SHERIDAN       PTCLDY    64  41  42 NW7       29.99R
BUFFALO WY     PTCLDY    69  35  28 W8        30.06R
CODY           CLEAR     68  32  26 CALM      30.03S
YELLOWSTONE LA   N/A     48  36  63 CALM      30.24F
IDAHO FALLS    CLEAR     72  38  29 S12       29.99R
SALMON         CLOUDY    72  39  30 N10       30.01R
BOISE          CLEAR     75  40  28 NW3       29.95R
SPOKANE        PTCLDY    69  35  28 SW7       30.03R
$$

REGIONAL REPORTS...ALBERTA

CITY           SKY/WX    TMP DP  RH WIND       PRES   REMARKS
EDMONTON       CLEAR     54  43  66 W6        29.93R
CALGARY        PTCLDY    57  36  44 S10       30.02R
LETHBRIDGE     PTCLDY    52  37  58 E7        30.01R
MEDICINE HAT   CLEAR     55  37  50 S3        30.00S
$$

REGIONAL REPORTS...SASKATCHEWAN

CITY           SKY/WX    TMP DP  RH WIND       PRES   REMARKS
SWIFT CURRENT  CLEAR     54  32  43 W7        29.99S
REGINA         CLEAR     50  36  57 W10       29.93R
SASKATOON      CLEAR     50  41  71 W6        29.92R
$$




USA.gov is the U.S. government's official web portal to all federal, state and local government web resources and services.